Location: Tucson
(32.2217°N, 110.9265°W)
Time: 07:00:01
(UTC-07:00)

Tiros 1 - Pass Details

Date: 27 October 2021
Orbit: 629 x 664 km, 48.4° (Epoch: 26 November)

Event Time Altitude Azimuth Distance (km) Brightness Sun altitude
Rises 09:42:17 0° 264° (W) 2,984 10.3 33.0°
Reaches altitude 10° 09:45:00 10° 278° (W) 2,071 9.4 33.3°
Maximum altitude 09:48:56 25° 333° (NNW) 1,325 8.5 33.9°
Drops below altitude 10° 09:52:52 10° 29° (NNE) 2,063 9.7 34.5°
Sets 09:55:34 0° 43° (NE) 2,970 10.5 34.8°
